Weather History for Tallahassee, FL

Change the Weather History Date:

Friday, February 22, 2013

  Actual Average Record
Temperature  
Mean Temperature 64 °F 56 °F  
Max Temperature 68 °F 69 °F 82 °F (1962)
Min Temperature 60 °F 43 °F 22 °F (1970)
Degree Days  
Heating Degree Days 1    
Month to date heating degree days 233  
Since 1 July heating degree days 951  
Cooling Degree Days 0    
Month to date cooling degree days 8  
Year to date cooling degree days 42  
Growing Degree Days 12 (Base 50)    
Moisture  
Dew Point 63 °F    
Average Humidity 92    
Maximum Humidity 94    
Minimum Humidity 87    
Precipitation  
Precipitation 4.75 in 0.20 in 4.75 in (2013)
Month to date precipitation 5.75 3.70  
Year to date precipitation 6.60 8.04  
Sea Level Pressure  
Sea Level Pressure 30.01 in    
Wind  
Wind Speed 6 mph (ESE)    
Max Wind Speed 15 mph    
Max Gust Speed 17 mph    
Visibility 4 miles    
Events Fog , Rain , Thunderstorm    
T = Trace of Precipitation, MM = Missing Value Source: NWS Daily Summary

Daily Weather History Graph

Daily Weather History Graph

Search for Another Location

Airport:

Trip Planner

Search our weather history database for the weather conditions in past years. The results will help you decide how hot, cold, wet, or windy it might be!

Date:

Astronomy

Feb. 22, 2013 Rise Set
Actual Time 7:10 AM EST 6:31 PM EST
Civil Twilight 6:46 AM EST 6:55 PM EST
Nautical Twilight 6:18 AM EST 7:23 PM EST
Astronomical Twilight 5:50 AM EST 7:51 PM EST
Moon 3:49 PM EST (2/22) 4:46 AM EST (2/22)
Length of Visible Light 12h 09m
Length of Day
11h 20m
Waxing Gibbous, 90% of the Moon is Illuminated
Feb 22
Waxing Gibbous
Feb 25
Full
Mar 4
Last Quarter
Mar 11
New
Mar 19
First Quarter

Hourly Weather History & Observations

Time (EST) Temp. Dew Point Humidity Pressure Visibility Wind Dir Wind Speed Gust Speed Precip Events Conditions
12:00 AM 60.8 °F 55.4 °F 82% 30.01 in 10.0 mi Calm Calm - N/A   Scattered Clouds
12:09 AM 60.8 °F 57.2 °F 88% 30.01 in 10.0 mi Calm Calm - N/A   Mostly Cloudy
12:53 AM 63.0 °F 59.0 °F 87% 30.01 in 10.0 mi SSE 3.5 mph - N/A   Overcast
1:05 AM 62.6 °F 60.8 °F 94% 30.02 in 7.0 mi Calm Calm - N/A   Overcast
1:39 AM 62.6 °F 60.8 °F 94% 30.02 in 0.5 mi Calm Calm - N/A Fog Fog
1:53 AM 62.1 °F 60.1 °F 93% 30.01 in 0.5 mi Calm Calm - N/A Fog Fog
2:49 AM 62.6 °F 60.8 °F 94% 30.00 in 0.2 mi East 6.9 mph - N/A Fog Fog
2:53 AM 62.1 °F 60.1 °F 93% 30.00 in 0.2 mi East 6.9 mph - N/A Fog Fog
3:05 AM 62.6 °F 60.8 °F 94% 30.00 in 0.5 mi ESE 6.9 mph - N/A Fog Fog
3:28 AM 62.6 °F 60.8 °F 94% 29.99 in 0.5 mi ESE 5.8 mph - N/A Fog Fog
3:49 AM 62.6 °F 60.8 °F 94% 29.98 in 0.8 mi ESE 4.6 mph - N/A   Mist
3:53 AM 62.1 °F 60.1 °F 93% 29.98 in 0.8 mi ESE 5.8 mph - N/A   Mist
4:53 AM 62.1 °F 60.1 °F 93% 29.99 in 0.5 mi East 5.8 mph - N/A Fog Fog
5:53 AM 62.1 °F 60.1 °F 93% 30.00 in 0.5 mi ESE 4.6 mph - N/A Fog Fog
6:53 AM 62.1 °F 60.1 °F 93% 30.01 in 0.5 mi East 4.6 mph - N/A Fog Fog
7:02 AM 62.6 °F 60.8 °F 94% 30.01 in 0.2 mi East 4.6 mph - N/A Fog Fog
7:22 AM 62.6 °F 60.8 °F 94% 30.02 in 0.5 mi Calm Calm - N/A Fog Fog
7:30 AM 62.6 °F 60.8 °F 94% 30.02 in 0.2 mi Calm Calm - N/A Fog Fog
7:53 AM 63.0 °F 61.0 °F 93% 30.02 in 0.2 mi SE 4.6 mph - N/A Fog Fog
8:43 AM 64.4 °F 62.6 °F 94% 30.03 in 0.5 mi SE 8.1 mph - N/A Fog Fog
8:50 AM 64.4 °F 62.6 °F 94% 30.02 in 2.0 mi SSE 9.2 mph - N/A   Overcast
8:53 AM 64.0 °F 62.1 °F 93% 30.02 in 4.0 mi SSE 8.1 mph - N/A   Overcast
9:53 AM 66.0 °F 64.0 °F 93% 30.02 in 10.0 mi SSE 8.1 mph - N/A   Overcast
10:37 AM 66.2 °F 64.4 °F 94% 30.03 in 10.0 mi South 6.9 mph - N/A   Overcast
10:53 AM 66.9 °F 64.0 °F 90% 30.04 in 10.0 mi South 8.1 mph - N/A   Overcast
11:53 AM 66.0 °F 63.0 °F 90% 30.04 in 6.0 mi SSE 10.4 mph - 0.03 in Rain Light Rain
12:11 PM 66.2 °F 62.6 °F 88% 30.06 in 5.0 mi South 4.6 mph - 0.05 in Rain , Thunderstorm Light Thunderstorms and Rain
12:20 PM 66.2 °F 62.6 °F 88% 30.05 in 1.5 mi East 3.5 mph - 0.09 in Rain , Thunderstorm Heavy Thunderstorms and Rain
12:53 PM 66.0 °F 64.0 °F 93% 30.06 in 1.5 mi East 5.8 mph - 0.56 in Rain , Thunderstorm Heavy Thunderstorms and Rain
1:18 PM 66.2 °F 64.4 °F 94% 30.06 in 0.8 mi ENE 4.6 mph - 0.34 in Rain , Thunderstorm Heavy Thunderstorms and Rain
1:33 PM 66.2 °F 64.4 °F 94% 30.05 in 1.5 mi ENE 8.1 mph - 0.61 in Rain , Thunderstorm Heavy Thunderstorms and Rain
1:42 PM 66.2 °F 64.4 °F 94% 30.04 in 2.0 mi ENE 8.1 mph - 0.68 in Rain , Thunderstorm Heavy Thunderstorms and Rain
1:53 PM 66.0 °F 64.0 °F 93% 30.04 in 2.5 mi East 4.6 mph - 0.75 in Rain , Thunderstorm Heavy Thunderstorms and Rain
2:05 PM 66.2 °F 64.4 °F 94% 30.02 in 1.2 mi East 10.4 mph - 0.16 in Rain , Thunderstorm Heavy Thunderstorms and Rain
2:29 PM 66.2 °F 64.4 °F 94% 30.01 in 2.5 mi East 13.8 mph - 0.46 in Rain , Thunderstorm Heavy Thunderstorms and Rain
2:36 PM 66.2 °F 64.4 °F 94% 30.01 in 4.0 mi SE 12.7 mph - 0.49 in Rain , Thunderstorm Thunderstorms and Rain
2:53 PM 66.9 °F 64.0 °F 90% 30.00 in 2.5 mi ESE 11.5 mph - 0.54 in Rain , Thunderstorm Thunderstorms and Rain
3:15 PM 66.2 °F 64.4 °F 94% 30.00 in 7.0 mi ESE 11.5 mph - 0.04 in Rain Rain
3:41 PM 66.2 °F 64.4 °F 94% 30.00 in 6.0 mi SE 12.7 mph - 0.13 in Rain Rain
3:51 PM 66.2 °F 64.4 °F 94% 29.99 in 7.0 mi ESE 12.7 mph - 0.15 in Rain , Thunderstorm Thunderstorms and Rain
3:53 PM 66.9 °F 64.0 °F 90% 29.98 in 7.0 mi East 15.0 mph - 0.15 in Rain , Thunderstorm Thunderstorms and Rain
4:30 PM 66.2 °F 64.4 °F 94% 29.99 in 2.5 mi East 12.7 mph - 0.11 in Rain , Thunderstorm Heavy Thunderstorms and Rain
4:37 PM 66.2 °F 64.4 °F 94% 29.99 in 4.0 mi ESE 11.5 mph - 0.15 in Rain , Thunderstorm Thunderstorms and Rain
4:53 PM 66.2 °F 64.4 °F 94% 30.01 in 4.0 mi ESE 6.9 mph - N/A Rain , Thunderstorm Thunderstorms and Rain
4:59 PM 66.2 °F 64.4 °F 94% 30.01 in 4.0 mi ESE 6.9 mph - 0.19 in Rain , Thunderstorm Thunderstorms and Rain
5:36 PM 66.2 °F 64.4 °F 94% 30.00 in 10.0 mi ESE 8.1 mph - 0.23 in Rain , Thunderstorm Light Thunderstorms and Rain
5:53 PM 66.0 °F 64.0 °F 93% 30.01 in 4.0 mi ESE 8.1 mph - 0.27 in Rain , Thunderstorm Heavy Thunderstorms and Rain
6:04 PM 66.2 °F 64.4 °F 94% 30.01 in 0.5 mi East 6.9 mph - 0.13 in Rain , Thunderstorm Heavy Thunderstorms and Rain
6:38 PM 66.2 °F 62.6 °F 88% 30.00 in 0.5 mi ESE 10.4 mph - 0.29 in Fog , Rain Rain
6:53 PM 66.0 °F 63.0 °F 90% 30.01 in 3.0 mi SE 6.9 mph - 0.35 in Rain Rain
7:14 PM 64.4 °F 62.6 °F 94% 30.01 in 4.0 mi ESE 6.9 mph - 0.08 in Rain Rain
7:53 PM 66.0 °F 63.0 °F 90% 29.99 in 5.0 mi East 11.5 mph - 0.27 in Rain Rain
8:08 PM 66.2 °F 62.6 °F 88% 29.99 in 2.5 mi ESE 8.1 mph - 0.15 in Rain Heavy Rain
8:25 PM 66.2 °F 62.6 °F 88% 29.99 in 3.0 mi East 6.9 mph - 0.33 in Rain Heavy Rain
8:35 PM 66.2 °F 64.4 °F 94% 30.01 in 4.0 mi Variable 3.5 mph - 0.39 in Rain Rain
8:53 PM 66.0 °F 64.0 °F 93% 30.00 in 3.0 mi SE 5.8 mph - 0.54 in Rain Heavy Rain
9:02 PM 66.2 °F 64.4 °F 94% 30.00 in 2.0 mi SE 4.6 mph - 0.09 in Rain Heavy Rain
9:25 PM 66.2 °F 62.6 °F 88% 29.99 in 9.0 mi ESE 9.2 mph - 0.24 in Rain Light Rain
9:37 PM 66.2 °F 62.6 °F 88% 29.98 in 10.0 mi ESE 11.5 mph - 0.25 in Rain Light Rain
9:53 PM 66.0 °F 63.0 °F 90% 29.98 in 3.0 mi ESE 8.1 mph - 0.33 in Rain Heavy Rain
10:48 PM 66.2 °F 62.6 °F 88% 29.98 in 1.0 mi ESE 4.6 mph - 0.15 in Rain Heavy Rain
10:53 PM 66.0 °F 64.0 °F 93% 29.99 in 1.0 mi Calm Calm - 0.21 in Rain Heavy Rain
10:55 PM 66.2 °F 64.4 °F 94% 29.98 in 1.0 mi Calm Calm - 0.01 in Rain Heavy Rain
10:59 PM 64.4 °F 62.6 °F 94% 29.98 in 2.0 mi ESE 5.8 mph - 0.13 in Rain Heavy Rain
11:08 PM 66.2 °F 62.6 °F 88% 29.98 in 6.0 mi ESE 4.6 mph - 0.15 in Rain Light Rain
11:18 PM 66.2 °F 64.4 °F 94% 29.97 in 6.0 mi ESE 4.6 mph - 0.16 in Rain Rain
11:53 PM 66.0 °F 64.0 °F 93% 29.95 in 10.0 mi Calm Calm - 0.22 in   Overcast